Temperature
12 12 12 12 12 12 12 12 12 13 13 13 13 13 14 14 14 14 14 14 14 14 14 15 15 15 15 15 15 15 15 15 15 15 15 15 15 15 15 15 15 15 14
12 12 12 12 12 12 12 12 12 12 12 13 13 13 13 13 14 14 14 14 14 14 14 14 14 14 14 14 14 14 14 14 14 14 14 14 14 14 14 14 14 14 14
12 11 11 11 11 11 12 12 12 12 12 12 12 13 13 13 13 14 14 14 14 14 14 14 14 14 14 14 14 14 14 14 14 14 14 14 14 14 14 14 14 14 14
11 11 11 11 11 11 11 12 12 12 12 12 12 12 12 13 13 13 14 14 14 14 14 14 14 14 14 14 14 14 14 14 14 14 14 14 14 14 14 14 13 13 13
11 11 11 11 11 11 11 11 11 11 11 12 12 12 12 13 13 13 13 13 13 13 13 13 13 13 13 13 14 14 14 14 14 14 14 13 13 13 13 13 13 13 13
11 11 11 11 11 11 11 11 11 11 11 11 12 12 12 12 12 13 13 13 13 13 13 13 13 13 13 13 13 13 13 14 14 13 13 13 13 13 13 13 13 13 12
11 11 11 11 11 11 11 11 11 11 11 11 11 11 12 12 12 12 12 12 12 12 12 13 13 13 13 13 13 13 13 13 13 13 13 13 13 13 13 13 13 13 13
11 11 11 11 11 11 11 11 11 11 11 11 11 11 11 12 12 12 12 12 12 12 12 12 12 12 12 13 13 13 13 13 13 13 13 13 13 13 13 13 13 12 12
11 11 11 11 11 11 11 11 10 11 11 11 11 11 11 11 11 11 12 12 12 12 12 12 12 12 12 12 13 13 13 13 13 13 13 13 13 13 12 12 12 12 12
11 11 11 11 11 11 11 10 10 10 10 11 11 11 11 11 11 12 12 12 11 12 12 12 12 12 12 12 12 13 12 12 12 12 12 12 12 12 12 12 12 12 12
11 11 11 11 11 11 11 11 10 10 10 10 11 11 11 11 11 11 12 12 11 11 11 12 12 12 12 12 12 12 12 12 12 12 12 12 12 12 12 12 12 12 12
11 11 11 11 11 11 11 11 11 10 10 10 10 10 10 11 11 11 11 11 11 11 11 11 11 12 12 12 12 12 12 12 12 12 12 12 12 12 11 11 11 12 11
12 12 11 11 11 11 11 11 11 11 10 10 10 10 10 11 11 11 11 11 11 11 11 11 11 11 11 11 11 11 11 11 12 12 11 11 11 11 11 11 11 11 11
12 12 12 11 11 11 11 11 11 11 11 10 10 10 10 11 11 11 11 11 11 11 10 10 11 11 11 11 11 11 11 11 11 11 11 11 11 10 10 10 10 10 10
13 13 12 12 11 11 11 11 11 11 11 11 11 11 11 11 11 11 11 11 11 10 10 10 10 10 10 10 10 11 11 11 11 11 10 10 10 10 10 10 10 10 10
13 13 13 12 12 11 11 11 11 11 11 11 11 11 11 11 11 11 11 11 10 10 10 10 10 10 10 10 10 10 10 10 10 10 10 10 10 10 10 10 9 10 9
13 13 13 12 12 12 11 11 11 11 11 11 11 11 11 11 11 11 11 10 10 10 10 10 10 10 10 10 10 10 9 9 10 10 9 9 9 9 9 9 9 9 9
13 13 13 12 12 12 12 11 11 11 11 11 11 11 11 11 11 11 10 10 10 10 10 9 9 9 9 9 9 9 9 9 9 9 9 9 9 9 9 9 9 9 9
13 13 13 13 12 12 12 12 12 12 11 11 11 11 11 11 10 10 10 10 10 9 9 9 9 9 9 9 9 9 9 9 9 9 9 9 9 9 9 9 9 8 8
13 13 13 13 12 12 12 12 12 12 12 12 12 11 11 11 10 10 10 10 10 10 10 10 10 10 9 9 9 9 9 9 8 8 9 9 8 8 8 8 8 8 8
13 13 13 13 13 12 12 12 12 12 12 12 12 12 11 11 11 10 10 10 10 10 10 10 10 10 10 10 9 9 9 8 8 8 8 8 8 8 8 8 8 8 8
13 13 13 13 13 13 12 12 12 12 12 12 12 12 12 11 11 11 10 11 10 11 11 11 10 10 10 10 10 9 9 8 8 8 8 8 8 8 8 8 8 7 7
14 13 13 13 13 13 12 12 12 12 12 12 12 12 12 12 11 11 11 11 11 11 11 11 11 11 11 11 10 10 9 9 9 9 8 8 8 8 8 7 7 7 7
14 13 13 13 13 13 12 12 12 12 12 12 12 12 12 12 12 11 11 11 11 11 11 11 11 11 11 11 11 11 10 10 10 9 9 8 8 8 7 7 7 7 7
14 13 13 13 13 13 12 12 12 12 12 12 12 12 12 12 12 12 11 11 11 11 11 11 11 11 11 11 11 11 11 11 10 10 10 9 8 8 7 7 7 7 7
14 14 13 13 13 13 13 12 12 12 12 12 12 12 12 12 12 12 12 12 12 12 11 11 11 11 11 11 11 11 11 11 11 10 10 10 9 8 8 7 7 7 7
Wind_Speed
9 8 9 9 8 8 8 8 8 7 7 6 5 5 4 3 1 1 1 2 2 2 2 3 4 4 4 4 4 4 4 4 3 2 2 2 3 2 3 5 7 8 8
8 8 8 9 9 9 9 9 8 8 7 7 6 5 5 4 3 2 1 2 2 2 2 3 3 3 4 3 4 4 4 4 3 3 2 2 2 3 4 4 5 7 8
7 8 9 9 10 9 9 9 9 9 9 9 8 7 7 6 5 4 2 1 2 2 3 3 3 3 3 3 3 3 3 3 3 3 3 2 2 3 3 3 4 4 7
7 8 9 9 9 9 9 9 10 9 9 9 9 9 8 7 8 7 5 4 3 3 3 3 3 3 3 3 3 3 3 3 4 4 3 2 2 3 3 3 3 3 4
7 8 8 9 9 8 9 9 9 9 10 9 9 10 9 8 9 9 7 6 6 6 6 5 5 6 5 4 3 3 3 3 4 4 3 3 3 3 3 3 5 5 4
7 7 7 8 8 8 8 9 9 9 9 9 9 10 10 10 12 13 9 6 6 6 6 5 6 7 8 8 8 7 5 4 4 4 3 4 4 3 4 4 5 5 3
7 7 7 8 8 8 9 8 8 8 8 9 9 9 9 11 14 13 12 6 6 6 6 5 5 7 7 5 7 9 9 8 5 4 5 4 4 3 4 4 4 4 4
6 7 7 7 8 8 8 8 7 7 7 7 7 8 8 12 16 14 10 6 6 6 6 7 6 7 7 6 6 8 8 8 7 6 6 5 5 4 4 5 6 6 5
6 6 6 6 7 7 8 8 7 6 6 6 6 8 8 11 16 15 10 5 5 7 8 8 8 8 10 9 7 8 8 7 10 13 12 11 12 11 7 5 5 6 4
5 5 5 5 5 6 7 6 5 5 5 5 6 7 8 9 15 16 12 5 6 6 7 8 12 10 10 8 6 6 7 5 5 6 7 8 8 9 9 5 4 5 4
5 4 4 4 4 5 5 5 5 5 5 5 6 6 7 9 12 15 14 6 5 6 6 6 7 11 12 10 8 6 5 4 4 6 6 6 6 6 6 7 6 4 4
3 3 3 4 4 5 4 5 5 5 5 6 6 6 6 7 9 11 13 11 9 7 5 4 5 9 10 9 7 7 7 6 5 5 6 5 5 5 5 6 10 11 9
2 1 1 2 2 3 4 5 5 5 5 5 5 5 5 6 8 13 12 11 10 6 4 5 5 7 6 6 8 8 6 5 5 6 6 5 4 4 4 5 7 10 12
2 2 2 2 3 4 4 4 5 5 5 5 5 5 5 6 7 7 6 5 6 6 4 4 5 6 5 5 5 5 5 5 5 5 5 4 3 4 4 3 4 5 6
3 3 3 3 2 2 3 2 3 4 3 3 4 4 4 4 5 7 6 5 5 4 3 2 3 3 4 4 4 5 5 5 5 4 4 4 4 4 3 3 3 4 5
1 1 2 3 3 2 2 2 3 2 3 4 4 3 3 3 4 6 8 8 8 8 4 3 4 4 4 4 4 4 4 4 3 3 3 3 3 3 3 2 3 4 5
2 1 1 1 2 2 2 2 3 2 1 0 0 2 2 2 3 4 6 8 8 6 3 3 4 4 4 4 4 3 3 3 3 3 3 3 3 3 3 3 3 4 4
3 2 2 2 2 2 2 2 2 3 3 3 4 4 3 2 2 4 5 5 2 2 2 3 3 3 3 3 3 3 3 3 3 3 3 3 3 3 3 3 3 3 3
4 3 3 3 3 3 2 2 2 2 2 3 4 3 5 4 4 5 4 1 1 2 2 2 2 2 2 3 3 2 2 2 2 2 3 2 2 3 2 3 4 4 3
3 3 3 2 3 4 4 4 3 3 3 2 3 4 4 4 3 3 2 1 1 2 2 2 2 2 2 2 2 1 1 1 2 2 2 2 2 2 3 3 3 3 2
4 5 8 4 4 4 4 4 3 3 3 3 2 4 6 3 3 3 3 3 2 2 3 3 3 2 2 1 0 1 1 1 1 2 2 1 1 2 2 2 2 3 3
4 4 5 6 5 5 4 4 4 4 4 4 4 5 7 4 3 3 3 4 4 4 3 3 3 4 3 3 2 1 1 1 1 1 2 2 2 1 1 1 2 3 3
5 5 5 5 5 5 5 4 4 5 5 5 5 5 6 5 5 5 4 5 5 4 4 4 3 3 5 6 5 2 2 2 2 2 2 2 2 2 2 2 2 2 2
6 6 5 5 5 5 5 5 5 6 5 5 5 5 6 7 6 6 6 5 5 5 6 6 5 6 8 8 7 6 4 2 3 2 1 0 1 1 2 2 2 2 3
7 6 6 5 5 4 5 5 5 5 5 5 5 5 5 6 6 6 6 6 7 6 7 8 9 8 9 10 10 9 8 7 5 3 1 1 1 1 1 2 2 2 3
7 7 6 5 5 5 5 5 5 5 5 4 5 5 5 5 5 6 6 6 6 6 6 8 11 12 12 12 13 14 14 12 10 7 3 1 2 3 3 2 3 3 3
Wind_Direction
7 5 5 4 10 14 13 6 5 4 5 8 13 13 14 18 30 90 119 136 153 156 158 173 183 176 176 183 183 189 189 177 187 197 161 162 153 155 160 167 155 146 157
8 8 7 8 15 17 15 9 9 9 9 12 15 20 29 34 36 51 89 128 141 151 144 137 159 167 173 175 178 184 181 182 177 176 153 155 166 161 164 163 149 144 144
16 13 12 16 15 14 14 14 13 13 16 18 20 26 29 27 26 21 40 87 135 147 137 139 140 141 154 162 165 158 164 166 153 153 151 149 144 144 142 132 127 121 136
28 21 17 18 16 16 15 17 17 16 21 23 24 29 30 32 31 23 26 45 69 81 99 104 110 125 126 127 133 134 140 141 140 138 141 137 126 126 126 126 119 112 113
38 29 18 18 19 18 17 20 21 20 24 24 28 30 30 35 30 25 24 45 55 57 57 65 75 88 87 89 106 108 117 122 132 137 139 129 127 126 134 132 124 112 91
45 33 19 21 19 16 20 22 21 22 24 29 31 32 35 33 25 27 28 43 54 59 62 63 70 76 79 80 86 92 97 104 119 124 131 132 132 129 127 130 129 126 112
44 39 27 25 21 16 18 22 23 26 27 31 31 31 37 30 27 25 26 45 55 56 56 56 63 66 68 81 86 79 66 64 85 107 109 113 122 132 128 125 128 117 117
43 38 36 28 21 16 16 18 22 26 30 32 31 29 35 29 26 25 26 49 57 59 55 55 61 57 50 63 84 80 69 52 61 77 86 83 81 83 104 121 124 110 101
47 43 38 30 22 19 16 14 18 23 28 32 32 34 36 28 24 27 33 52 58 63 63 58 57 54 41 60 87 94 87 76 74 85 91 91 81 75 83 99 113 121 119
45 48 41 32 28 25 15 11 14 22 26 35 41 43 41 35 29 30 33 48 56 60 64 59 50 47 43 56 79 94 94 95 98 94 85 83 80 74 75 86 104 123 124
47 45 35 25 37 39 16 7 14 20 28 39 48 51 50 41 32 32 34 37 46 58 57 50 41 42 45 53 68 76 85 93 89 90 86 79 71 66 61 62 66 93 106
80 64 50 38 28 32 17 11 16 17 29 35 40 45 48 45 37 30 37 43 46 60 60 51 43 42 45 51 60 58 60 70 83 85 82 74 71 68 64 67 71 70 75
131 126 105 88 75 35 15 21 21 21 28 31 33 36 42 41 31 27 35 46 47 55 59 60 52 44 45 56 58 54 55 71 78 83 85 80 79 79 72 70 72 71 63
190 169 136 82 70 61 34 28 38 27 22 21 24 28 33 42 26 10 8 32 45 47 44 53 53 50 57 53 48 52 62 74 89 94 94 90 81 74 72 81 95 91 72
218 180 144 126 107 85 87 51 55 71 66 35 17 19 27 30 12 6 10 11 12 14 357 44 60 59 59 56 53 51 55 62 71 76 90 92 87 83 77 67 82 93 100
271 92 117 143 147 162 156 133 66 93 116 89 66 56 68 60 17 15 11 6 3 3 23 53 57 58 62 63 62 59 57 56 64 77 86 94 96 98 96 81 85 101 107
234 197 180 175 163 194 199 187 178 186 217 281 98 79 85 37 11 2 358 352 343 355 41 62 63 56 57 60 61 66 66 53 51 72 87 93 91 89 95 95 93 98 105
227 196 193 185 206 225 220 227 210 181 189 203 212 215 208 228 294 318 334 342 345 36 65 69 70 65 60 62 58 60 68 56 50 66 79 85 90 93 95 97 98 104 117
219 201 196 197 209 222 221 230 234 221 213 182 157 187 216 223 251 283 312 310 46 89 87 82 77 76 75 78 67 47 58 72 69 79 84 84 90 100 102 104 105 96 97
224 204 190 213 229 227 221 223 227 226 227 206 169 168 177 194 212 210 207 212 138 123 126 129 121 101 92 94 94 62 51 75 70 78 88 84 79 99 119 124 131 134 123
218 199 193 215 238 241 234 228 229 224 216 206 178 158 163 191 207 190 183 185 179 175 166 160 156 150 134 120 146 206 205 154 136 120 121 111 100 97 99 112 120 120 116
226 214 195 208 219 229 237 236 235 233 229 215 184 173 183 202 229 221 198 187 184 178 167 167 183 178 166 176 208 222 204 173 150 144 137 132 123 124 122 118 130 138 146
226 235 223 218 213 215 218 232 240 240 234 225 206 182 183 205 217 217 208 192 179 177 176 178 193 187 180 190 201 194 199 195 166 138 139 155 169 175 163 168 164 150 154
217 234 235 227 221 218 217 226 232 231 227 226 224 209 192 197 205 207 202 189 181 181 184 188 199 203 192 185 192 198 203 158 130 127 132 153 177 181 176 179 184 186 169
209 226 232 229 227 225 228 234 238 239 231 223 222 220 209 198 199 200 196 187 182 186 189 191 198 209 210 194 189 188 183 175 164 152 161 243 243 225 205 201 202 205 196
203 219 228 227 225 226 230 237 242 246 243 235 227 222 217 210 205 201 195 188 187 189 191 195 200 203 209 210 203 194 188 187 190 194 199 253 251 231 215 223 230 220 214
Height
1521 1517 1514 1511 1508 1505 1503 1501 1498 1496 1494 1493 1491 1490 1490 1491 1491 1492 1494 1495 1497 1498 1500 1502 1504 1507 1509 1511 1514 1516 1519 1521 1523 1525 1527 1529 1531 1532 1534 1536 1537 1539 1541
1522 1519 1516 1513 1510 1507 1505 1502 1500 1498 1496 1494 1492 1491 1491 1491 1491 1492 1493 1495 1496 1498 1499 1500 1502 1504 1506 1508 1511 1513 1516 1517 1520 1522 1524 1526 1528 1530 1532 1534 1535 1536 1538
1524 1521 1518 1515 1512 1510 1507 1505 1503 1500 1498 1496 1494 1492 1492 1492 1492 1492 1493 1494 1496 1497 1498 1499 1501 1503 1505 1506 1508 1511 1513 1515 1517 1519 1521 1524 1526 1528 1530 1532 1533 1535 1537
1526 1523 1520 1517 1515 1512 1509 1507 1505 1502 1500 1498 1496 1495 1494 1493 1493 1493 1494 1495 1496 1497 1498 1499 1501 1502 1504 1505 1507 1509 1511 1513 1515 1517 1520 1522 1525 1527 1529 1530 1532 1534 1536
1528 1525 1522 1520 1517 1515 1512 1510 1507 1505 1503 1501 1499 1497 1496 1495 1495 1495 1495 1496 1496 1497 1498 1499 1500 1501 1503 1505 1506 1508 1510 1511 1514 1516 1519 1521 1523 1525 1527 1529 1531 1533 1535
1530 1527 1525 1522 1520 1517 1515 1512 1510 1508 1506 1504 1502 1500 1498 1498 1497 1497 1497 1497 1498 1498 1499 1500 1500 1501 1503 1505 1506 1508 1510 1512 1513 1516 1518 1520 1523 1525 1527 1528 1530 1532 1535
1532 1529 1527 1524 1522 1520 1517 1515 1513 1511 1509 1507 1505 1503 1502 1501 1500 1500 1500 1500 1500 1500 1501 1501 1502 1503 1504 1505 1507 1509 1510 1512 1514 1516 1518 1520 1522 1524 1526 1528 1530 1532 1534
1533 1531 1529 1526 1524 1522 1520 1517 1515 1514 1512 1510 1508 1507 1505 1504 1503 1503 1503 1502 1502 1502 1503 1503 1504 1504 1505 1507 1508 1510 1511 1513 1515 1517 1519 1520 1523 1524 1526 1528 1530 1532 1534
1535 1533 1531 1528 1526 1524 1522 1520 1518 1517 1515 1513 1511 1510 1508 1507 1507 1506 1505 1505 1505 1505 1505 1506 1506 1507 1508 1509 1510 1511 1513 1515 1516 1518 1519 1521 1523 1525 1526 1528 1530 1531 1533
1536 1534 1532 1530 1529 1526 1524 1523 1521 1519 1518 1516 1515 1513 1512 1510 1510 1509 1509 1508 1507 1507 1507 1508 1509 1509 1511 1512 1513 1514 1515 1516 1518 1519 1521 1523 1524 1526 1527 1529 1530 1532 1533
1537 1536 1534 1532 1531 1529 1527 1525 1524 1522 1521 1520 1518 1517 1515 1514 1513 1512 1511 1511 1510 1510 1510 1510 1511 1512 1513 1514 1515 1516 1517 1518 1520 1521 1522 1524 1525 1527 1528 1529 1531 1532 1533
1538 1537 1536 1534 1533 1531 1530 1528 1526 1525 1524 1522 1521 1520 1518 1517 1516 1515 1514 1513 1513 1513 1513 1513 1514 1515 1516 1517 1517 1518 1519 1520 1521 1523 1524 1525 1526 1527 1529 1530 1531 1532 1533
1540 1538 1537 1536 1534 1533 1532 1530 1528 1527 1526 1525 1523 1522 1521 1520 1518 1517 1517 1516 1516 1516 1516 1516 1517 1517 1518 1519 1519 1520 1521 1522 1523 1524 1525 1526 1528 1529 1530 1531 1532 1533 1533
1540 1539 1538 1537 1536 1534 1533 1532 1530 1529 1527 1526 1525 1524 1523 1522 1521 1520 1519 1518 1518 1518 1518 1519 1519 1519 1520 1520 1521 1522 1523 1524 1524 1525 1526 1528 1529 1530 1530 1531 1532 1533 1534
1540 1540 1539 1538 1537 1535 1534 1533 1532 1531 1529 1528 1526 1525 1524 1523 1522 1521 1521 1520 1520 1520 1520 1521 1521 1521 1522 1522 1523 1524 1524 1525 1526 1527 1528 1529 1530 1531 1531 1532 1533 1534 1535
1540 1540 1539 1538 1537 1536 1535 1534 1533 1532 1531 1529 1528 1527 1526 1525 1524 1523 1522 1522 1522 1522 1522 1522 1522 1523 1523 1524 1524 1525 1526 1526 1527 1528 1529 1530 1530 1531 1532 1533 1534 1535 1535
1538 1538 1538 1537 1537 1536 1536 1535 1534 1533 1532 1531 1530 1528 1527 1526 1525 1524 1524 1523 1523 1523 1523 1523 1524 1524 1524 1525 1525 1526 1527 1527 1528 1529 1529 1530 1531 1532 1532 1533 1534 1535 1535
1536 1536 1536 1536 1536 1535 1535 1535 1534 1533 1532 1532 1531 1529 1528 1527 1526 1525 1525 1525 1524 1524 1524 1524 1524 1524 1525 1525 1526 1526 1527 1527 1528 1529 1530 1530 1531 1532 1533 1533 1534 1535 1536
1534 1534 1534 1534 1534 1534 1534 1534 1534 1533 1532 1531 1530 1530 1529 1528 1527 1526 1526 1525 1525 1524 1524 1524 1524 1525 1525 1525 1525 1526 1527 1527 1528 1529 1529 1530 1531 1532 1533 1533 1534 1535 1536
1531 1531 1531 1532 1532 1532 1532 1532 1532 1532 1532 1531 1530 1529 1529 1528 1527 1526 1526 1525 1525 1524 1524 1524 1524 1524 1524 1525 1525 1525 1526 1527 1528 1528 1529 1530 1530 1531 1532 1533 1533 1534 1535
1527 1528 1528 1529 1529 1529 1530 1530 1530 1530 1530 1530 1530 1529 1528 1527 1526 1526 1525 1525 1524 1524 1523 1523 1523 1523 1523 1524 1524 1525 1525 1526 1526 1527 1528 1529 1529 1530 1531 1532 1533 1533 1534
1524 1524 1525 1525 1526 1526 1527 1527 1528 1528 1528 1528 1528 1527 1527 1526 1525 1525 1524 1524 1523 1523 1522 1522 1522 1522 1522 1522 1523 1523 1524 1524 1525 1526 1526 1527 1528 1529 1529 1530 1531 1532 1532
1519 1520 1521 1522 1522 1523 1523 1524 1524 1524 1525 1525 1525 1525 1524 1524 1524 1523 1523 1522 1522 1521 1521 1521 1521 1521 1521 1521 1521 1521 1522 1522 1523 1524 1524 1525 1526 1527 1527 1528 1529 1530 1531
1515 1516 1517 1518 1519 1519 1519 1520 1520 1521 1521 1521 1522 1522 1521 1521 1521 1521 1521 1520 1520 1520 1519 1519 1519 1519 1519 1519 1519 1519 1520 1520 1520 1521 1522 1523 1523 1524 1525 1526 1527 1527 1528
1509 1511 1512 1513 1514 1515 1515 1516 1516 1517 1517 1518 1518 1518 1518 1518 1518 1518 1518 1518 1518 1517 1517 1517 1517 1517 1517 1517 1517 1517 1518 1518 1518 1519 1519 1520 1521 1521 1522 1523 1524 1525 1525
1504 1505 1506 1508 1509 1509 1510 1511 1512 1512 1513 1513 1514 1514 1515 1515 1515 1515 1515 1515 1515 1515 1514 1514 1514 1514 1514 1514 1514 1515 1515 1515 1515 1516 1516 1517 1517 1518 1519 1520 1521 1521 1522